Akron, CO

5:12 AM MDT on October 14, 2019 (GMT -0600)
Akron-Washington County

Weather History for KAKO - September, 2019

Change the Weather History Date:

Wednesday, September 18, 2019

  Actual Average Record
Temperature  
Mean Temperature 65 °F 62 °F  
Max Temperature 79 °F 76 °F 95 °F (2004)
Min Temperature 50 °F 48 °F 30 °F (1942)
Degree Days  
Heating Degree Days 0    
Month to date heating degree days 6  
Cooling Degree Days 0    
Month to date cooling degree days 128  
Growing Degree Days 14 (Base 50)    
Moisture  
Dew Point 37 °F    
Average Humidity 39    
Maximum Humidity 60    
Minimum Humidity 17    
Precipitation  
Precipitation 0.00 in 0.04 in 0.53 in (2013)
Month to date precipitation 0.55 0.73  
Year to date precipitation 15.04 14.22  
Snow  
Snow 0.00 in - - ()
Snow Depth 0.00 in    
Sea Level Pressure  
Sea Level Pressure 29.93 in    
Wind  
Wind Speed 12 mph (ENE)    
Max Wind Speed 20 mph    
Max Gust Speed 27 mph    
Visibility 10 miles    
Events      
T = Trace of Precipitation, MM = Missing Value Source: NWS Daily Summary

Daily Weather History Graph

Daily Weather History Graph

Search for Another Location

Airport or City:

Astronomy

Sep. 18, 2019 Rise Set
Actual Time 6:36 AM MDT 6:56 PM MDT
Civil Twilight 6:09 AM MDT 7:24 PM MDT
Nautical Twilight 5:37 AM MDT 7:55 PM MDT
Astronomical Twilight 5:04 AM MDT 8:28 PM MDT
Moon 9:32 PM MDT (9/18) 10:42 AM MDT (9/18)
Length of Visible Light 13h 14m
Length of Day
12h 20m
Waning Gibbous, 82% of the Moon is Illuminated
Sep 18
Waning Gibbous
Sep 21
Last Quarter
Sep 28
New
Oct 5
First Quarter
Oct 13
Full

Hourly Weather History & Observations

Time (MDT) Temp. Dew Point Humidity Pressure Visibility Wind Dir Wind Speed Gust Speed Precip Events Conditions
1:53 AM 61.0 °F 35.1 °F 38% 30.01 in 10.0 mi North 17.3 mph - N/A   Clear
2:53 AM 55.9 °F 36.0 °F 47% 29.85 in 10.0 mi North 13.8 mph - N/A   Clear
3:53 AM 54.0 °F 36.0 °F 51% 29.87 in 10.0 mi North 9.2 mph - N/A   Clear
4:53 AM 53.1 °F 33.1 °F 47% 29.88 in 10.0 mi North 11.5 mph - N/A   Clear
5:53 AM 53.1 °F 32.0 °F 45% 29.91 in 10.0 mi NNW 10.4 mph - N/A   Clear
6:53 AM 50.0 °F 32.0 °F 50% 29.96 in 10.0 mi North 8.1 mph - N/A   Clear
7:53 AM 57.0 °F 32.0 °F 39% 29.98 in 10.0 mi NNW 3.5 mph - N/A   Clear
8:53 AM 62.1 °F 30.0 °F 30% 29.98 in 10.0 mi NNE 8.1 mph - N/A   Clear
9:53 AM 66.0 °F 30.0 °F 26% 29.98 in 10.0 mi NNE 8.1 mph - N/A   Clear
10:53 AM 70.0 °F 27.0 °F 20% 29.97 in 10.0 mi NNE 9.2 mph - N/A   Clear
11:53 AM 73.0 °F 27.0 °F 18% 29.97 in 10.0 mi ENE 9.2 mph - N/A   Clear
12:53 PM 75.0 °F 30.0 °F 19% 29.95 in 10.0 mi Variable 5.8 mph 19.6 mph N/A   Clear
1:53 PM 77.0 °F 33.1 °F 20% 29.93 in 10.0 mi ESE 16.1 mph 20.7 mph N/A   Clear
2:53 PM 78.1 °F 37.0 °F 23% 29.92 in 10.0 mi East 13.8 mph 23.0 mph N/A   Clear
3:53 PM 79.0 °F 37.9 °F 23% 29.90 in 10.0 mi ESE 13.8 mph 21.9 mph N/A   Clear
4:53 PM 78.1 °F 39.9 °F 25% 29.89 in 10.0 mi East 17.3 mph - N/A   Clear
5:53 PM 75.9 °F 41.0 °F 29% 29.91 in 10.0 mi SE 13.8 mph - N/A   Clear
6:53 PM 71.1 °F 43.0 °F 36% 29.93 in 10.0 mi ESE 11.5 mph - N/A   Clear
7:53 PM 66.9 °F 43.0 °F 42% 29.94 in 10.0 mi SE 11.5 mph - N/A   Clear
8:53 PM 66.0 °F 45.0 °F 47% 29.93 in 10.0 mi SE 15.0 mph 24.2 mph N/A   Partly Cloudy
9:53 PM 63.0 °F 46.0 °F 54% 29.93 in 10.0 mi ESE 10.4 mph - N/A   Clear
10:53 PM 63.0 °F 46.9 °F 56% 29.92 in 10.0 mi SE 10.4 mph - N/A   Clear
11:53 PM 63.0 °F 48.0 °F 58% 29.90 in 10.0 mi SE 11.5 mph - N/A   Partly Cloudy